Tracking 28125 objects as of 3-Oct-2023
HD Live streaming from Space Station
objects crossing your sky now

STARLINK-3843

Track STARLINK-3843 now!
10-day predictions
STARLINK-3843 is classified as:


NORAD ID: 52341
Int'l Code: 2022-045L
Perigee: 545.9 km
Apogee: 547.9 km
Inclination: 53.2 °
Period: 95.4 minutes
Semi major axis: 6917 km
RCS: Unknown
Launch date: April 29, 2022
Source: United States (US)
Launch site: AIR FORCE EASTERN TEST RANGE (AFETR)
Your satellite tracking list
Your tracking list is empty




NASA's NSSDC Master Catalog

Two Line Element Set (TLE):
1 52341U 22045L   23275.28623033 -.00005292  00000-0 -31475-3 0  9997
2 52341  53.2158 241.7587 0001477  95.6943 264.4218 15.08828489 81379
Source of the keplerian elements: AFSPC